Regional Weather Roundup
Issued by NWS Cleveland, OH

Home | Current Version | Previous Version | Text Only | Print | Product List | Glossary Off
Versions: 1 2 3 4 5 6 7 8 9 10 11 12 13 14 15 16 17 18 19 20 21 22 23 24 25 26 27 28 29 30 31 32 33 34 35 36 37 38 39 40 41 42 43 44 45 46 47 48 49 50

000
ASUS41 KCLE 260510
RWRCLE
OHIO REGIONAL WEATHER ROUNDUP
NATIONAL WEATHER SERVICE WILMINGTON, OH
100 AM EDT FRI AUG 26 2016

NOTE: "FAIR" INDICATES FEW OR NO CLOUDS BELOW 12,000 FEET WITH NO
SIGNIFICANT WEATHER AND/OR OBSTRUCTIONS TO VISIBILITY.

OHZ001>008-015>018-024>027-034-035-043-044-260600-
   NORTHWEST OHIO

CITY           SKY/WX    TMP DP  RH WIND       PRES   REMARKS
DEFIANCE       CLOUDY    74  70  87 CALM      30.07R
FINDLAY        MOCLDY    74  68  81 W6        30.06R
TOLEDO EXPRESS FAIR      73  70  90 NW6       30.05R
TOLEDO EXEC    FAIR      74  71  91 W6        30.06R
LIMA           MOCLDY    73  71  93 W6        30.08R
$$

OHZ009>014-019>023-028>033-038-089-260600-
   NORTHEAST OHIO

CITY           SKY/WX    TMP DP  RH WIND       PRES   REMARKS
CLE-HOPKINS    FAIR      78  69  73 W8        30.06R
CLE-LAKEFRONT  FAIR      78  73  84 W12       30.02R
CUY CO. ARPT   NOT AVBL
LORAIN-ELYRIA  FAIR      73  68  84 W5        30.05R
ASHTABULA      MOCLDY    71  71 100 CALM      30.04R
AKRON-CANTON   FAIR      75  67  76 NW8       30.06R
WOOSTER        FAIR      70  67  90 W3        30.08R
MANSFIELD      FAIR      74  69  85 W5        30.09R
YOUNGSTOWN     FAIR      72  70  93 SW3       30.05R
$$

OHZ042-051>053-060>062-070>072-077>081-260600-
  SOUTHWEST OHIO

CITY           SKY/WX    TMP DP  RH WIND       PRES   REMARKS
CINC-COVINGTON FAIR      77  72  84 SW3       30.10R
CINC-LUNKEN    FAIR      73  73 100 CALM      30.08S
HAMILTON       FAIR      73  71  93 CALM      30.09R
DAYTON         FAIR      74  71  91 W3        30.10R
WRIGHT-PAT AFB FAIR      75  73  94 SW2       30.09R
DAYTON GENERAL FAIR      80  72  76 SW3       30.09R
WILMINGTON     FAIR      73  72  96 SW5       30.10R
$$

OHZ036-037-039>041-045>050-054>059-063>069-073>076-082>088-260600-
  CENTRAL AND SOUTHEAST OHIO

CITY           SKY/WX    TMP DP  RH WIND       PRES   REMARKS
COLUMBUS       FAIR      77  71  82 CALM      30.07R
OSU AIRPORT    FAIR      76  72  87 W3        30.08R
BOLTON FIELD   FAIR      74  72  91 W3        30.09R
RICKENBACK AFB FAIR      74  73  95 CALM      30.07R
NEWARK         FAIR      73  72  96 CALM      30.08R
MARION         FAIR      75  69  81 W5        30.08R
LANCASTER      FAIR      77  73  87 W3        30.08R
ZANESVILLE     FAIR      77  72  84 W5        30.08R
NEW PHILLY     MOCLDY    80  69  69 NW6       30.07R
$$




USA.gov is the U.S. government's official web portal to all federal, state and local government web resources and services.